Retour au catalogue

WMAP

ActifScienceLPO
NORAD 26859·PAYLOAD·🇺🇸 United States

Lancé Jun 30, 2001 depuis Cape Canaveral Space Force Station

Loading…

TLE

PériméSource: Space-Track

Époque: Jul 27, 2001, 08:30 UTC

1 26859U 01027A   01208.35486111 -.00014293 +00000-0 +10000-3 0  9994
2 26859 027.8097 031.0262 9441726 052.5765 032.2971 00.09816132000039

Suivez WMAP en temps réel avec AllMySat

Download on the App Store